Vorticity
9 7 8 8 7 6 8 10 12 18 21 22 18 16 13 12 11 10 10 9 9 9 9 9 9 9 8
7 8 9 7 6 9 10 15 19 21 16 13 14 10 10 11 11 11 12 12 13 12 12 13 10 10 9
8 8 6 9 10 11 15 20 18 15 15 13 11 11 12 13 10 10 10 12 13 14 14 13 12 13 14
8 6 9 10 12 16 19 15 15 14 10 12 13 12 14 13 12 12 13 12 10 10 10 11 15 14 12
7 9 12 14 15 14 17 12 13 12 15 13 13 12 12 10 12 14 14 13 13 12 12 13 16 14 13
10 12 15 15 15 14 13 11 12 12 12 9 10 12 13 15 19 17 16 17 14 13 11 11 14 14 12
12 15 14 14 14 11 11 14 12 12 11 12 10 14 12 9 11 14 15 15 14 12 13 13 15 12 11
18 16 16 15 10 12 13 9 9 8 11 14 9 8 8 7 12 14 18 18 16 12 10 11 10 12 13
16 18 15 11 11 10 9 8 8 8 12 11 8 8 8 8 13 15 16 18 20 16 16 15 9 8 8
21 17 11 12 10 8 9 7 8 9 11 7 8 8 11 9 13 12 16 18 21 18 16 18 18 14 11
17 13 14 10 10 12 10 8 8 9 11 8 9 10 7 6 13 15 18 20 20 19 18 18 18 17 15
12 14 10 11 12 11 9 9 9 11 12 11 8 10 7 10 10 18 18 15 15 15 17 17 16 15 13
14 10 11 11 10 9 11 12 14 14 12 13 11 10 11 13 11 15 12 10 16 14 12 15 18 18 16
12 11 10 9 10 11 12 13 14 15 16 15 13 12 12 13 10 8 12 15 16 18 13 14 16 16 16
10 9 10 12 11 11 13 12 12 15 16 15 13 12 12 10 12 14 14 17 19 15 14 15 19 18 16
10 11 11 9 9 12 13 12 12 12 13 13 13 13 16 17 13 9 14 16 15 11 11 12 20 13 13
11 12 8 9 9 8 8 9 11 11 12 13 12 9 10 12 13 14 14 15 11 14 12 12 15 11 13
Height
3025 3021 3017 3013 3007 3001 2995 2988 2982 2977 2971 2964 2959 2953 2949 2945 2942 2939 2936 2933 2931 2929 2928 2927 2926 2926 2925
3013 3009 3005 3000 2993 2987 2981 2976 2968 2962 2957 2952 2947 2941 2938 2935 2931 2928 2925 2922 2920 2918 2916 2915 2914 2913 2912
3002 2997 2993 2988 2980 2975 2968 2962 2956 2951 2946 2941 2936 2931 2929 2925 2921 2917 2913 2910 2907 2904 2903 2902 2900 2899 2898
2991 2985 2979 2974 2967 2960 2956 2951 2946 2941 2936 2931 2927 2923 2920 2915 2910 2906 2902 2898 2893 2891 2890 2889 2888 2886 2886
2979 2973 2968 2962 2955 2948 2942 2937 2934 2931 2928 2925 2920 2915 2911 2904 2899 2895 2890 2886 2882 2879 2876 2876 2874 2873 2873
2967 2961 2956 2950 2942 2937 2931 2927 2922 2922 2918 2916 2908 2904 2899 2894 2890 2884 2879 2875 2871 2868 2864 2863 2862 2860 2860
2956 2950 2943 2937 2932 2927 2924 2920 2916 2912 2907 2904 2894 2891 2887 2884 2880 2874 2869 2864 2859 2855 2852 2849 2849 2847 2847
2947 2941 2934 2928 2923 2918 2914 2910 2907 2902 2897 2889 2885 2880 2877 2874 2870 2865 2859 2853 2848 2844 2839 2836 2836 2835 2834
2936 2930 2924 2920 2915 2910 2907 2902 2897 2893 2889 2877 2876 2870 2865 2862 2860 2856 2850 2844 2838 2833 2828 2824 2823 2822 2821
2926 2922 2917 2913 2909 2903 2898 2893 2887 2881 2881 2867 2866 2859 2850 2850 2847 2842 2838 2833 2827 2821 2817 2813 2811 2809 2808
2917 2914 2911 2907 2903 2899 2894 2888 2881 2875 2873 2859 2855 2852 2842 2832 2832 2831 2825 2821 2815 2811 2807 2803 2800 2797 2796
2910 2907 2904 2901 2898 2893 2888 2882 2875 2867 2865 2857 2846 2842 2834 2826 2819 2820 2815 2809 2804 2800 2796 2793 2791 2788 2786
2903 2901 2898 2895 2891 2886 2882 2875 2870 2865 2857 2850 2841 2835 2828 2820 2812 2809 2803 2800 2796 2790 2786 2783 2781 2779 2777
2899 2896 2892 2888 2884 2878 2873 2868 2863 2859 2853 2843 2835 2827 2820 2814 2807 2801 2798 2788 2786 2781 2776 2773 2772 2770 2768
2893 2890 2887 2883 2878 2873 2866 2861 2855 2849 2845 2839 2829 2822 2815 2807 2800 2797 2788 2783 2778 2771 2768 2764 2764 2761 2758
2889 2885 2881 2877 2873 2868 2861 2854 2849 2843 2836 2829 2822 2815 2810 2806 2794 2785 2781 2773 2769 2764 2760 2754 2754 2753 2750
2884 2880 2877 2873 2868 2863 2857 2850 2844 2837 2831 2824 2815 2805 2796 2791 2792 2783 2768 2765 2757 2754 2749 2745 2742 2743 2738